Home   Weather   Scranton   Past weeks

Flag for USA Past Weather in Scranton, Pennsylvania, USA — Yesterday and Last 2 Weeks

Now
39 °F

Clear.


Feels Like: 37 °F
Forecast: 31 / 38 °F
Wind: 3 mph from Southwest

Location: Barre - Scranton - Wilkes-Barre / Scranton International Airport

Current Time: Dec 7, 2016 at 11:17:46 pm

Latest Report: Dec 7, 2016 at 9:54 pm


Visibility: 10 mi

Pressure: 30.00 "Hg

Humidity: 65%

Dew Point: 28 °F

Location of ScrantonLocation

Past Weather in Scranton — Graph

°F

Scranton Temperature Yesterday

Maximum temperature yesterday: 41 °F (at 11:54 am)
Minimum temperature yesterday: 26 °F (at 5:54 am)
Average temperature yesterday: 34 °F

High & Low Weather Summary for the Past Weeks

 TemperatureHumidityPressure
High55 °F (Nov 29, 11:54 am)100% (Nov 26, 6:57 am)30.35 "Hg (Nov 26, 6:57 am)
Low26 °F (Dec 6, 5:54 am)43% (Nov 28, 2:54 pm)29.41 "Hg (Nov 30, 11:54 pm)
Average40 °F76%30.04 "Hg
* Reported Nov 22 8:54 pm — Dec 7 8:54 pm, Scranton, Weather by CustomWeather, © 2016

Note: Actual official high and low records may vary slightly from our data, if they occured in-between our weather recording intervals... More about our weather records

Advertising

Scranton Weather History for the Previous 24 Hours

Scroll right to see more
 ConditionsComfort  
Time TempWeatherWind HumidityBarometerVisibility
8:54 pm
Wed, Dec 7
38 °FClear.3 mph70%30.02 "Hg10 mi
7:54 pm39 °FClear.5 mph70%30.01 "Hg10 mi
6:54 pm39 °FClear.No wind73%30.03 "Hg10 mi
5:54 pm40 °FClear.5 mph70%30.02 "Hg10 mi
4:54 pm41 °FPassing clouds.6 mph67%30.01 "Hg10 mi
3:54 pm42 °FPartly sunny.8 mph73%29.99 "Hg10 mi
2:54 pm41 °FBroken clouds.7 mph80%29.97 "Hg10 mi
1:54 pm41 °FOvercast.No wind80%29.97 "Hg10 mi
12:54 pm40 °FMostly cloudy.9 mph83%29.96 "Hg10 mi
11:54 am40 °FOvercast.6 mph86%29.97 "Hg10 mi
10:54 am39 °FPartly sunny.6 mph89%29.98 "Hg9 mi
10:01 am38 °FFog.10 mph93%29.98 "Hg5 mi
9:54 am38 °FFog.9 mph97%29.99 "Hg6 mi
8:54 am36 °FLow clouds.5 mph97%29.98 "Hg7 mi
8:00 am35 °FFog.3 mph96%29.96 "Hg0 mi
6:54 am35 °FFog.No wind96%29.95 "Hg3 mi
5:54 am35 °FLight rain. Fog.No wind96%29.94 "Hg4 mi
5:01 am35 °FLight rain. Fog.No wind96%29.90 "Hg1 mi
3:54 am35 °FFog.No wind96%29.88 "Hg1 mi
2:54 am35 °FFog.No wind96%29.88 "Hg1 mi
1:54 am35 °FFog.No wind92%29.87 "Hg2 mi
12:54 am35 °FLight rain. Fog.No wind96%29.85 "Hg1 mi
11:54 pm
Tue, Dec 6
35 °FLight rain. Fog.3 mph92%29.83 "Hg4 mi
Weather by CustomWeather, © 2016

See weather overviewHow to use our weather pages